Torna al catalogo

CZ-6A DEB

AttivoPO
NORAD 61129·DEBRIS·🇨🇳 China

Lanciato Aug 6, 2024 da Taiyuan Satellite Launch Center

Loading…

Prossimi Passaggi (prossime 24 ore)

TLE

AggiornatoSource: Space-Track

Epoca: Sep 14, 2026, 17:46 UTC

1 61129U 24140PX  26257.74085747  .00002084  00000-0  53480-3 0  9991
2 61129  89.0016 261.3697 0070459   4.4198 355.7614 14.48460768108996

Traccia CZ-6A DEB in tempo reale con AllMySat

Download on the App Store